Hannibal Rgnl AP, Hannibal, M, MO

8:06 AM CDT on April 25, 2017 (GMT -0500)
Hannibal Municipal

Weather History for KHAE - February, 2014

Change the Weather History Date:

Tuesday, February 18, 2014

  Actual Average Record
Temperature  
Mean Temperature 46 °F -  
Max Temperature 57 °F 40 °F 69 °F (2017)
Min Temperature 35 °F 23 °F 10 °F (2015)
Degree Days  
Heating Degree Days 19    
Moisture  
Dew Point 25 °F    
Average Humidity 47    
Maximum Humidity 65    
Minimum Humidity 25    
Precipitation  
Precipitation 0.00 in - - ()
Sea Level Pressure  
Sea Level Pressure 29.83 in    
Wind  
Wind Speed 10 mph (SSW)    
Max Wind Speed 20 mph    
Max Gust Speed 28 mph    
Visibility 10 miles    
Events      
Averages and records for this station are not official NWS values.
T = Trace of Precipitation, MM = Missing Value Source: NWS Daily Summary

Daily Weather History Graph

Daily Weather History Graph

Search for Another Location

Airport or City:

Trip Planner

Search our weather history database for the weather conditions in past years. The results will help you decide how hot, cold, wet, or windy it might be!

Date:

Astronomy

Feb. 18, 2014 Rise Set
Actual Time 6:54 AM CST 5:45 PM CST
Civil Twilight 6:26 AM CST 6:13 PM CST
Nautical Twilight 5:55 AM CST 6:44 PM CST
Astronomical Twilight 5:24 AM CST 7:15 PM CST
Moon 9:38 PM CST (2/18) 8:27 AM CST (2/18)
Length of Visible Light 11h 46m
Length of Day
10h 51m
Waning Gibbous, 87% of the Moon is Illuminated
Feb 18
Waning Gibbous
Feb 22
Last Quarter
Mar 1
New
Mar 8
First Quarter
Mar 16
Full

Hourly Weather History & Observations

Time (CST) Temp. Windchill Dew Point Humidity Pressure Visibility Wind Dir Wind Speed Gust Speed Precip Events Conditions
12:15 AM 37.4 °F 32.8 °F 24.8 °F 60% 29.98 in 10.0 mi WSW 5.8 mph - N/A   Clear
12:35 AM 39.2 °F 33.6 °F 24.8 °F 56% 29.98 in 10.0 mi SW 8.1 mph - N/A   Clear
12:55 AM 39.2 °F 33.6 °F 24.8 °F 56% 29.98 in 10.0 mi SW 8.1 mph - N/A   Clear
1:15 AM 37.4 °F 31.4 °F 24.8 °F 60% 29.97 in 10.0 mi SW 8.1 mph - N/A   Clear
1:35 AM 37.4 °F 32.1 °F 24.8 °F 60% 29.97 in 10.0 mi SSW 6.9 mph - N/A   Clear
1:55 AM 37.4 °F 32.1 °F 23.0 °F 56% 29.98 in 10.0 mi SSW 6.9 mph - N/A   Clear
2:15 AM 37.4 °F 31.4 °F 23.0 °F 56% 29.98 in 10.0 mi SSW 8.1 mph - N/A   Clear
2:35 AM 35.6 °F 29.2 °F 24.8 °F 65% 29.97 in 10.0 mi SSW 8.1 mph - N/A   Clear
2:55 AM 35.6 °F 29.2 °F 23.0 °F 60% 29.97 in 10.0 mi SSW 8.1 mph - N/A   Clear
3:15 AM 35.6 °F 29.2 °F 23.0 °F 60% 29.96 in 10.0 mi SSW 8.1 mph - N/A   Clear
3:35 AM 35.6 °F 28.6 °F 23.0 °F 60% 29.96 in 10.0 mi South 9.2 mph - N/A   Clear
3:55 AM 35.6 °F 28.6 °F 23.0 °F 60% 29.95 in 10.0 mi South 9.2 mph - N/A   Clear
4:15 AM 35.6 °F 29.2 °F 23.0 °F 60% 29.94 in 10.0 mi South 8.1 mph - N/A   Clear
4:35 AM 35.6 °F 28.6 °F 23.0 °F 60% 29.94 in 10.0 mi South 9.2 mph - N/A   Clear
4:55 AM 35.6 °F 28.6 °F 23.0 °F 60% 29.93 in 10.0 mi South 9.2 mph - N/A   Clear
5:15 AM 37.4 °F 29.8 °F 23.0 °F 56% 29.93 in 10.0 mi South 11.5 mph - N/A   Clear
5:35 AM 37.4 °F 30.3 °F 23.0 °F 56% 29.93 in 10.0 mi South 10.4 mph - N/A   Clear
5:55 AM 37.4 °F 29.3 °F 23.0 °F 56% 29.92 in 10.0 mi South 12.7 mph - N/A   Clear
6:15 AM 37.4 °F 29.3 °F 23.0 °F 56% 29.90 in 10.0 mi South 12.7 mph - N/A   Clear
6:35 AM 37.4 °F 28.9 °F 23.0 °F 56% 29.90 in 10.0 mi South 13.8 mph - N/A   Clear
6:55 AM 37.4 °F 28.9 °F 23.0 °F 56% 29.89 in 10.0 mi South 13.8 mph - N/A   Clear
7:15 AM 37.4 °F 29.3 °F 23.0 °F 56% 29.89 in 10.0 mi South 12.7 mph 20.7 mph N/A   Clear
7:35 AM 39.2 °F 30.8 °F 24.8 °F 56% 29.89 in 10.0 mi South 15.0 mph - N/A   Clear
7:55 AM 41.0 °F 33.1 °F 24.8 °F 53% 29.90 in 10.0 mi South 15.0 mph - N/A   Clear
8:15 AM 41.0 °F 33.1 °F 24.8 °F 53% 29.89 in 10.0 mi South 15.0 mph - N/A   Clear
8:35 AM 42.8 °F 35.8 °F 26.6 °F 53% 29.89 in 10.0 mi South 13.8 mph 20.7 mph N/A   Clear
8:55 AM 44.6 °F 37.8 °F 24.8 °F 46% 29.89 in 10.0 mi South 15.0 mph - N/A   Clear
9:15 AM 44.6 °F 38.1 °F 24.8 °F 46% 29.88 in 10.0 mi South 13.8 mph - N/A   Clear
9:35 AM 44.6 °F 37.4 °F 24.8 °F 46% 29.88 in 10.0 mi South 16.1 mph - N/A   Clear
9:55 AM 46.4 °F 39.5 °F 24.8 °F 43% 29.88 in 10.0 mi South 17.3 mph - N/A   Clear
10:15 AM 46.4 °F 40.4 °F 24.8 °F 43% 29.85 in 10.0 mi South 13.8 mph 20.7 mph N/A   Clear
10:55 AM 50.0 °F - 23.0 °F 35% 29.82 in 10.0 mi South 11.5 mph 17.3 mph N/A   Clear
11:15 AM 50.0 °F - 23.0 °F 35% 29.83 in 10.0 mi South 16.1 mph 20.7 mph N/A   Clear
11:35 AM 50.0 °F - 23.0 °F 35% 29.82 in 10.0 mi SSW 19.6 mph 26.5 mph N/A   Clear
11:55 AM 50.0 °F - 24.8 °F 37% 29.80 in 10.0 mi South 15.0 mph 19.6 mph N/A   Clear
12:15 PM 51.8 °F - 23.0 °F 33% 29.79 in 10.0 mi South 16.1 mph 20.7 mph N/A   Clear
12:35 PM 51.8 °F - 23.0 °F 33% 29.76 in 10.0 mi South 15.0 mph 21.9 mph N/A   Clear
12:55 PM 51.8 °F - 21.2 °F 30% 29.76 in 10.0 mi SSW 13.8 mph 24.2 mph N/A   Clear
1:15 PM 51.8 °F - 23.0 °F 33% 29.75 in 10.0 mi South 16.1 mph 21.9 mph N/A   Clear
1:35 PM 51.8 °F - 21.2 °F 30% 29.72 in 10.0 mi South 19.6 mph 24.2 mph N/A   Clear
1:55 PM 53.6 °F - 21.2 °F 28% 29.71 in 10.0 mi SSW 18.4 mph 27.6 mph N/A   Clear
2:15 PM 53.6 °F - 21.2 °F 28% 29.70 in 10.0 mi SSW 19.6 mph 24.2 mph N/A   Clear
2:35 PM 53.6 °F - 21.2 °F 28% 29.70 in 10.0 mi South 17.3 mph 25.3 mph N/A   Clear
2:55 PM 53.6 °F - 23.0 °F 30% 29.70 in 10.0 mi SSW 15.0 mph - N/A   Clear
3:15 PM 53.6 °F - 23.0 °F 30% 29.70 in 10.0 mi South 11.5 mph - N/A   Clear
3:35 PM 55.4 °F - 23.0 °F 29% 29.70 in 10.0 mi SSW 9.2 mph - N/A   Clear
4:35 PM 57.2 °F - 21.2 °F 25% 29.70 in 10.0 mi SW 8.1 mph - N/A   Clear
4:55 PM 57.2 °F - 21.2 °F 25% 29.70 in 10.0 mi SW 10.4 mph 16.1 mph N/A   Clear
5:35 PM 53.6 °F - 23.0 °F 30% 29.71 in 10.0 mi SW 9.2 mph - N/A   Clear
5:55 PM 53.6 °F - 23.0 °F 30% 29.71 in 10.0 mi SW 6.9 mph - N/A   Clear
6:15 PM 50.0 °F - 26.6 °F 40% 29.72 in 10.0 mi SW 8.1 mph - N/A   Clear
6:35 PM 50.0 °F - 26.6 °F 40% 29.71 in 10.0 mi SSW 8.1 mph - N/A   Clear
6:55 PM 50.0 °F - 26.6 °F 40% 29.72 in 10.0 mi SSW 9.2 mph - N/A   Clear
7:15 PM 48.2 °F - 28.4 °F 46% 29.72 in 10.0 mi SSW 8.1 mph - N/A   Clear
7:35 PM 50.0 °F - 28.4 °F 43% 29.71 in 10.0 mi SSW 8.1 mph - N/A   Clear
7:55 PM 50.0 °F - 28.4 °F 43% 29.72 in 10.0 mi SSW 6.9 mph - N/A   Clear
8:15 PM 46.4 °F - 28.4 °F 50% 29.73 in 10.0 mi Calm Calm - N/A   Clear
8:35 PM 50.0 °F - 28.4 °F 43% 29.73 in 10.0 mi WSW 9.2 mph - N/A   Clear
8:55 PM 46.4 °F 43.5 °F 28.4 °F 50% 29.74 in 10.0 mi WSW 5.8 mph - N/A   Clear
9:15 PM 44.6 °F 40.7 °F 28.4 °F 53% 29.75 in 10.0 mi West 6.9 mph - N/A   Clear
9:35 PM 42.8 °F 38.0 °F 30.2 °F 61% 29.75 in 10.0 mi West 8.1 mph - N/A   Clear
9:55 PM 44.6 °F 39.7 °F 30.2 °F 57% 29.76 in 10.0 mi West 9.2 mph - N/A   Clear
10:15 PM 44.6 °F 38.1 °F 30.2 °F 57% 29.77 in 10.0 mi West 13.8 mph 19.6 mph N/A   Clear
10:35 PM 46.4 °F 40.7 °F 30.2 °F 53% 29.79 in 10.0 mi WNW 12.7 mph 18.4 mph N/A   Clear
10:55 PM 44.6 °F 38.1 °F 30.2 °F 57% 29.80 in 10.0 mi NW 13.8 mph 24.2 mph N/A   Clear
11:35 PM 42.8 °F 37.0 °F 30.2 °F 61% 29.82 in 10.0 mi NW 10.4 mph - N/A   Clear
11:55 PM 42.8 °F 37.0 °F 30.2 °F 61% 29.83 in 10.0 mi NW 10.4 mph - N/A   Clear